Regional Weather Roundup
Issued by NWS

Home | Current Version | Previous Version | Text Only | Print | Product List | Glossary Off
Versions: 1 2 3 4 5 6 7 8 9 10 11 12 13 14 15 16 17 18 19 20 21 22 23 24 25 26 27 28 29 30 31 32 33 34 35 36 37 38 39 40 41 42 43 44 45 46 47 48 49 50

000
ASUS43 KOAX 282310
RWRNE

WEATHER ROUNDUP FOR NEBRASKA
NATIONAL WEATHER SERVICE OMAHA NE
600 PM CDT SAT MAR 28 2015

NOTES: SATELLITE DATA IS BEING USED TO AUGMENT CLOUD COVER ABOVE
       12000 FEET.
       "FAIR" INDICATES FEW OR NO CLOUDS BELOW 12,000 FEET WITH NO
       SIGNIFICANT WEATHER AND/OR OBSTRUCTIONS TO VISIBILITY.

  * THESE STATIONS DO NOT REPORT WEATHER SUCH AS RAIN...SNOW OR FOG.

NEZ001>004-019>022-054>056-290000-
NEBRASKA PANHANDLE

CITY           SKY/WX    TMP DP  RH WIND       PRES   REMARKS
SCOTTSBLUFF    SUNNY     82  25  12 W25G32    29.77F
ALLIANCE       SUNNY     80  32  17 W17G23    29.76F
CHADRON        SUNNY     83  27  13 W18G29    29.67F
KIMBALL        SUNNY     78  23  13 NW20      29.84F
SIDNEY         SUNNY     78  24  13 W18G24    29.83F
$$

NEZ057>060-069>072-079>082-290000-
SOUTHWEST NEBRASKA

CITY           SKY/WX    TMP DP  RH WIND       PRES   REMARKS
NORTH PLATTE   SUNNY     77  34  21 S18G24    29.80F
IMPERIAL         N/A     82  27  13 SW15      29.80F
LEXINGTON      SUNNY     71  35  27 S17G24    29.88F
MCCOOK         SUNNY     79  34  19 S18G26    29.84F
OGALLALA       SUNNY     82  31  15 S12G17    29.77F
$$

NEZ005>010-023>029-035>040-094-290000-
NORTH CENTRAL NEBRASKA

CITY           SKY/WX    TMP DP  RH WIND       PRES   REMARKS
VALENTINE      SUNNY     78  32  18 S23G31    29.71F
AINSWORTH      SUNNY     71  35  26 S26       29.77F
BROKEN BOW     SUNNY     70  36  28 S21       29.86F
O`NEILL        SUNNY     62  34  34 S18G28    29.87F
ORD            SUNNY     64  32  30 S18G24    29.88F
THEDFORD       SUNNY     78  36  22 S20G25    29.78F
$$

NEZ041-046>049-061>064-073>077-083>087-290000-
SOUTH CENTRAL NEBRASKA

CITY           SKY/WX    TMP DP  RH WIND       PRES   REMARKS
GRAND ISLAND   SUNNY     62  34  35 SE18G25   29.95F
AURORA         SUNNY     59  33  37 SE17G23   29.96F
HASTINGS       SUNNY     64  35  34 SE14      29.93F
HEBRON         SUNNY     62  30  30 SE14      29.98F
HOLDREGE       SUNNY     66  33  28 S18G25    29.91F
KEARNEY *      SUNNY     66  34  30 S15G28    29.92F
YORK           SUNNY     57  36  44 SE17      29.97F
$$

NEZ011>018-030>034-042>045-290000-
NORTHEAST NEBRASKA

CITY           SKY/WX    TMP DP  RH WIND       PRES   REMARKS
NORFOLK        SUNNY     55  33  43 S20       29.95F
ALBION         SUNNY     58  32  38 S17       29.94F
BLAIR          SUNNY     54  30  40 SE14G21   30.02F
COLUMBUS *     SUNNY     55  34  44 SE13      29.99F
FREMONT        SUNNY     55  30  39 SE17      30.02F
TEKAMAH        SUNNY     55  29  36 SE26G41   30.02F
WAYNE          SUNNY     55  32  42 S18G26    29.98F
$$

NEZ050>053-065>068-078-088>093-290000-
SOUTHEAST NEBRASKA

CITY           SKY/WX    TMP DP  RH WIND       PRES   REMARKS
LINCOLN        SUNNY     57  33  40 SE15      30.03F
OMAHA EPPLEY   SUNNY     54  30  40 S20       30.04F
BEATRICE       SUNNY     56  33  41 SE14      30.02F
FALLS CITY     SUNNY     53  32  44 SE17      30.07F
NEBRASKA CITY  SUNNY     53  28  38 S15       30.06F
PLATTSMOUTH    SUNNY     53  28  38 SE16G22   30.05F
$$

NEZ044-045-051>053-067-290000-
OMAHA AREA

CITY           SKY/WX    TMP DP  RH WIND       PRES   REMARKS
OMAHA EPPLEY   SUNNY     54  30  40 S20       30.04F
BLAIR          SUNNY     54  30  40 SE14G21   30.02F
FREMONT        SUNNY     55  30  39 SE17      30.02F
MILLARD        SUNNY     54  32  43 SE15      30.03F
OFFUTT AFB     SUNNY     54  31  40 S15       30.04F
PLATTSMOUTH    SUNNY     53  28  38 SE16G22   30.05F
WAHOO          FAIR      55  30  39 SE17G25   30.02F
$$


USA.gov is the U.S. government's official web portal to all federal, state and local government web resources and services.